{"data":{"norad_id":59756,"epoch":"2026-09-21T16:18:53.195904Z","epoch_age_seconds":69327,"freshness":"FRESH","line1":"1 59756U 24091D   26264.67978236 -.00000272  00000+0  26140-5 0  9995","line2":"2 59756  53.1583 320.2639 0000931  75.5399 284.5722 15.69705756136297","mean_motion":15.69705756,"eccentricity":9.31e-5,"inclination_deg":53.1583,"raan_deg":320.2639,"arg_perigee_deg":75.5399,"mean_anomaly_deg":284.5722,"bstar":2.614e-6,"rev_number":13629,"period_min":91.736938244367,"perigee_km":359.11159890479,"apogee_km":360.36619139647,"semimajor_km":6737.8758951506,"source":"CELESTRAK","updated_at":"2026-09-22T09:00:49.067284Z"}}